Flag Weather past 2 weeks in Rio de Janeiro, Rio de Janeiro, Brazil

Now
72 °F

Partly sunny.


Feels Like: 67 °F
Forecast: 72 / 78 °F
Wind: 5 mph from South

Location: Rio De Janeiro Airport

Current Time: Nov 29, 2014 at 7:01:38 AM

Latest Report: Nov 29, 2014 at 6:00 AM


Visibility: 5 mi

Pressure: 30.01 "Hg

Humidity: 94%

Dew point: 70 °F

Location of Rio de JaneiroLocation

Historic Weather in Rio de Janeiro — Graph

°F

Rio de Janeiro temperature yesterday

Maximum temperature yesterday: 82 °F (at 3:00 PM)
Minimum temperature yesterday: 72 °F (at 10:00 PM)
Average temperature yesterday: 76 °F

Past Weeks' High & Low Weather Summary

 TemperatureHumidityPressure
High93 °F (Nov 22, 12:00 PM)100% (Nov 16, 6:00 AM)30.07 "Hg (Nov 16, 6:00 AM)
Low66 °F (Nov 15, 8:00 AM)46% (Nov 22, 6:00 PM)29.65 "Hg (Nov 26, 4:00 PM)
Average76 °F76%29.93 "Hg
* Reported Nov 14 6:00 AM — Nov 29 6:00 AM, Rio de Janeiro, Weather by CustomWeather, © 2014

Note: Actual official high and low records may vary slightly from our data, if they occured in-between our weather recording intervals... More about our weather records

Advertising

Rio de Janeiro weather history for previous 24 hours

 ConditionsComfort  
Time TempWeatherWind HumidityBarometerVisibility
6:00 AM
Nov 29
72 °FPartly sunny.5 mph94%30.01 "Hg5 mi
11:00 PM
Nov 28
72 °FPassing clouds.2 mph94%29.89 "HgN/A
10:00 PM72 °FLight rain. Passing clouds.7 mph94%30.04 "Hg4 mi
9:00 PM73 °FPassing clouds.5 mph89%30.01 "HgN/A
8:00 PM73 °FPassing clouds.6 mph89%30.01 "HgN/A
7:10 PM75 °FLight rain. Partly sunny.8 mph83%29.98 "Hg6 mi
7:00 PM77 °FPartly sunny.7 mph79%29.98 "HgN/A
6:00 PM77 °FBroken clouds.7 mph79%29.98 "HgN/A
5:00 PM77 °FBroken clouds.10 mph74%29.95 "HgN/A
4:00 PM77 °FBroken clouds.10 mph79%29.98 "HgN/A
3:00 PM82 °FBroken clouds.14 mph66%29.98 "HgN/A
2:00 PM81 °FPartly sunny.9 mph70%29.98 "HgN/A
1:00 PM77 °FCloudy.8 mph79%29.98 "Hg5 mi
12:00 PM75 °FCloudy.12 mph83%29.98 "Hg5 mi
11:00 AM79 °FPartly sunny.9 mph74%29.98 "Hg5 mi
10:00 AM79 °FPartly sunny.9 mph79%29.95 "HgN/A
9:00 AM77 °FPartly sunny.9 mph79%29.95 "HgN/A
8:00 AM77 °FPartly sunny.6 mph79%29.92 "HgN/A
7:00 AM75 °FPartly sunny.6 mph83%29.92 "HgN/A
Weather by CustomWeather, © 2014

See weather overviewHow to use our weather pages